Location: *
(43.4667°N, 11.6833°E)
Time: 02:29:28
(UTC+00:00)

Cosmos 1741 Rocket - Pass Details

Date: 19 July 2019
Orbit: 761 x 783 km, 74.0° (Epoch: 20 August)

Event Time Altitude Azimuth Distance (km) Brightness Sun altitude
Exits shadow 22:21:41 49° 230° (SW) 981 4.3 -24.4°
Maximum altitude 22:22:58 68° 292° (WNW) 821 4.2 -24.5°
Drops below altitude 10° 22:28:11 10° 16° (NNE) 2,304 7.3 -24.7°
Sets 22:30:35 0° 19° (NNE) 3,235 8.2 -24.8°
